TimeCST,TemperatureF,Dew PointF,Humidity,Sea Level PressureIn,VisibilityMPH,Wind Direction,Wind SpeedMPH,Gust SpeedMPH,PrecipitationIn,Events,Conditions,WindDirDegrees,DateUTC
12:53 AM,23.0,19.9,88,30.18,9.0,WNW,4.6,-,N/A,,Clear,300,2013-02-12 06:53:00
1:53 AM,23.0,19.9,88,30.17,9.0,WNW,4.6,-,N/A,,Clear,300,2013-02-12 07:53:00
2:53 AM,21.9,19.0,89,30.17,9.0,West,4.6,-,N/A,,Clear,280,2013-02-12 08:53:00
3:53 AM,21.9,19.0,89,30.15,9.0,Calm,Calm,-,N/A,,Clear,0,2013-02-12 09:53:00
4:53 AM,21.0,19.0,92,30.15,8.0,SW,3.5,-,N/A,,Clear,220,2013-02-12 10:53:00
5:53 AM,19.9,18.0,92,30.17,7.0,SW,4.6,-,N/A,,Clear,230,2013-02-12 11:53:00
6:53 AM,19.9,17.1,89,30.17,8.0,SW,4.6,-,N/A,,Clear,220,2013-02-12 12:53:00
7:53 AM,21.0,19.0,92,30.14,6.0,Calm,Calm,-,N/A,,Clear,0,2013-02-12 13:53:00
8:53 AM,26.1,23.0,88,30.15,8.0,SSW,5.8,-,N/A,,Clear,200,2013-02-12 14:53:00
9:53 AM,30.0,25.0,82,30.13,10.0,SW,5.8,-,N/A,,Clear,220,2013-02-12 15:53:00
10:53 AM,35.1,25.0,67,30.12,10.0,SW,8.1,-,N/A,,Clear,220,2013-02-12 16:53:00
11:53 AM,39.9,25.0,55,30.10,10.0,WSW,8.1,-,N/A,,Clear,240,2013-02-12 17:53:00
12:53 PM,43.0,23.0,45,30.06,10.0,West,9.2,-,N/A,,Clear,260,2013-02-12 18:53:00
1:53 PM,44.1,21.9,42,30.03,10.0,SW,9.2,-,N/A,,Clear,220,2013-02-12 19:53:00
2:53 PM,45.0,21.9,40,30.00,10.0,WSW,9.2,-,N/A,,Clear,240,2013-02-12 20:53:00
3:53 PM,45.0,21.9,40,29.99,10.0,WSW,9.2,-,N/A,,Clear,240,2013-02-12 21:53:00
4:53 PM,44.1,23.0,43,29.96,10.0,SW,9.2,-,N/A,,Clear,230,2013-02-12 22:53:00
5:53 PM,39.9,23.0,51,29.97,10.0,SW,5.8,-,N/A,,Clear,220,2013-02-12 23:53:00
6:53 PM,36.0,23.0,59,29.97,10.0,SSW,9.2,-,N/A,,Clear,200,2013-02-13 00:53:00
7:53 PM,34.0,23.0,64,29.96,10.0,SSW,9.2,-,N/A,,Clear,200,2013-02-13 01:53:00
8:53 PM,30.9,23.0,72,29.96,10.0,SSW,9.2,-,N/A,,Clear,210,2013-02-13 02:53:00
9:53 PM,30.0,21.9,72,29.95,10.0,SSW,10.4,-,N/A,,Clear,210,2013-02-13 03:53:00
10:53 PM,30.0,21.9,72,29.93,10.0,SSW,9.2,-,N/A,,Clear,210,2013-02-13 04:53:00
11:53 PM,28.9,21.9,75,29.92,10.0,SW,9.2,-,N/A,,Clear,230,2013-02-13 05:53:00